Regional Weather Roundup
Issued by NWS Green Bay, WI

Home | Current Version | Previous Version | Graphics & Text | Print | Product List | Glossary Off
Versions: 1 2 3 4 5 6 7 8 9 10 11 12 13 14 15 16 17 18 19 20 21 22 23 24 25 26 27 28 29 30 31 32 33 34 35 36 37 38 39 40 41 42 43 44 45 46 47 48 49 50

000
ASUS43 KGRB 281111
RWRGRB

NORTH-CENTRAL AND NORTHEAST WISCONSIN REGIONAL WEATHER ROUNDUP
NATIONAL WEATHER SERVICE GREEN BAY WI
600 AM CDT SAT MAY 28 2016

WIZ005-009-010>012-018-019-281200-
NORTH CENTRAL WISCONSIN

CITY           SKY/WX    TMP DP  RH WIND       PRES   REMARKS
IRONWOOD       CLOUDY    63  63 100 CALM      29.74S
MANITOWISH WTR NOT AVBL
ARBOR VITAE    CLOUDY    65  64  94 CALM      29.79S FOG
EAGLE RIVER      N/A     64  64  99 CALM      29.79F FOG
LAND O LAKES   CLOUDY    64  64  99 SE5       29.81F FOG
RHINELANDER    CLOUDY    66  64  93 CALM      29.79F FOG
PHILLIPS       CLOUDY    64  64 100 S3        29.77R
ANTIGO         CLOUDY    65  65 100 S9        29.81S FOG
TOMAHAWK       CLOUDY    65  64  96 SE3       29.78F FOG
MERRILL        CLOUDY    67  67 100 SE6       29.79S FOG
$$

WIZ013-073-281200-
NORTHEAST WISCONSIN

CITY           SKY/WX    TMP DP  RH WIND       PRES   REMARKS
IRON MOUNTAIN  FOG       62  61  96 SE5       29.80F VSB 1/4
MARINETTE      CLOUDY    61  61 100 SE3       29.83S VSB 1
OCONTO         CLOUDY   N/A N/A N/A NE3       29.81S
$$

WIZ017-030-035>037-045-281200-
CENTRAL WISCONSIN

CITY           SKY/WX    TMP DP  RH WIND       PRES   REMARKS
MEDFORD        CLOUDY    64  64 100 CALM      29.77S FOG
WAUSAU         CLOUDY    69  66  90 SE7       29.76S FOG
MOSINEE        CLOUDY    66  66 100 SE5       29.79S FOG
MARSHFIELD     CLOUDY    68  65  90 E3        29.75F FOG
WISC RAPIDS    LGT RAIN  68  65  90 S7        29.77S
STEVENS POINT  LGT RAIN  66  65  98 SE7       29.78S
WAUPACA        RAIN      69  69 100 SE5       29.79S
SHAWANO        RAIN      69  67  95 S5        29.80S
CLINTONVILLE   LGT RAIN  66  64  94 S7        29.80S
WAUTOMA        LGT RAIN  67  66  97 SE6       29.78F
$$

WIZ038-039-048-051-281200-
FOX VALLEY

CITY           SKY/WX    TMP DP  RH WIND       PRES   REMARKS
NWS GREEN BAY  CLOUDY    68  65  90 S3        29.81S
APPLETON       MOCLDY    66  66 100 S8        29.80S
OSHKOSH        CLOUDY    67  64  90 S7        29.80S
FOND DU LAC    CLOUDY    69  65  86 S10       29.80F
$$

WIZ022-050-052-281200-
EAST CENTRAL WISCONSIN

CITY           SKY/WX    TMP DP  RH WIND       PRES   REMARKS
EPHRAIM        PTSUNNY   59  59 100 S6        29.84R FOG
STURGEON BAY   NOT AVBL
MANITOWOC      CLOUDY    58  57  97 S10       29.85R FOG
SHEBOYGAN      CLOUDY    62  60  93 S6        29.83F FOG
$$

LMZ563-521-522-541>543-281200-
LAKESHORE

STATION/POSITION TIME  TEMP    WIND        PRES    VSBY  WAVE
                       AIR SEA DIR/SP/G                  HT/PER
                 (UTC) (F)     (DEG/KT/KT) (MB)    (MI)  (FT/S)
SHEBOYGAN LKSHOR 1100   54     170/ 14/ 14 1010.8F
KEWAUNEE LKSHORE 1000   53     170/  9/ 12 1009.8R
ALGOMA MARINA    1047          190/  6/  8   N/A
NORTHPORT PIER   1000   57     160/  6/ 12 1010.5R
N MID LAKE BUOY  1050   53 46  190/ 14/ 16 1010.7R         1/ 3
SISTER BAY LKSHO 1020   58     170/ 14/ 17   N/A
CHAMBERS ISLAND  1040   61     150/  6/ 12 1010.2R
MENOMINEE LKSHOR 1000   60     170/  9/ 12 1008.7R
$$



USA.gov is the U.S. government's official web portal to all federal, state and local government web resources and services.